TimeMDT,TemperatureF,Dew PointF,Humidity,Sea Level PressureIn,VisibilityMPH,Wind Direction,Wind SpeedMPH,Gust SpeedMPH,PrecipitationIn,Events,Conditions,WindDirDegrees,DateUTC
12:53 AM,51.1,19.9,29,29.63,10.0,SSW,16.1,-,N/A,,Clear,210,2013-10-29 06:53:00
1:53 AM,50.0,21.9,33,29.65,6.0,SSW,25.3,38.0,N/A,,Haze,200,2013-10-29 07:53:00
2:06 AM,50.0,21.2,32,29.84,3.0,SSW,31.1,47.2,N/A,,Haze,200,2013-10-29 08:06:00
2:53 AM,48.0,23.0,37,29.67,10.0,SSW,10.4,26.5,N/A,,Mostly Cloudy,210,2013-10-29 08:53:00
3:53 AM,46.9,27.0,46,29.67,10.0,SSE,18.4,34.5,N/A,,Scattered Clouds,160,2013-10-29 09:53:00
4:53 AM,44.1,33.1,65,29.69,10.0,SW,11.5,-,0.00,Rain,Light Rain,220,2013-10-29 10:53:00
5:49 AM,41.0,35.6,81,29.86,10.0,WSW,17.3,-,0.01,Rain,Light Rain,240,2013-10-29 11:49:00
5:53 AM,41.0,35.1,79,29.73,10.0,WSW,20.7,25.3,0.01,Rain,Light Rain,250,2013-10-29 11:53:00
6:05 AM,39.2,35.6,87,29.87,5.0,WSW,24.2,31.1,0.02,Rain,Rain,240,2013-10-29 12:05:00
6:44 AM,37.4,35.6,93,29.84,10.0,NNW,6.9,-,0.04,,Overcast,330,2013-10-29 12:44:00
6:53 AM,37.9,35.1,89,29.72,10.0,NE,3.5,-,0.04,,Overcast,40,2013-10-29 12:53:00
7:41 AM,37.4,35.6,93,29.86,5.0,SW,17.3,25.3,0.02,Rain,Rain,230,2013-10-29 13:41:00
7:53 AM,37.9,35.1,89,29.76,5.0,SW,15.0,-,0.05,Rain,Rain,230,2013-10-29 13:53:00
8:07 AM,35.6,33.8,93,29.90,2.5,WSW,20.7,32.2,0.04,Snow,Light Snow,250,2013-10-29 14:07:00
8:11 AM,33.8,30.2,87,29.90,1.2,West,13.8,29.9,0.05,Snow,Light Snow,260,2013-10-29 14:11:00
8:13 AM,33.8,30.2,87,29.90,0.8,West,19.6,29.9,0.05,Snow,Light Snow,270,2013-10-29 14:13:00
8:30 AM,32.0,32.0,100,29.92,1.2,SW,8.1,-,0.08,Snow,Light Snow,230,2013-10-29 14:30:00
8:39 AM,33.8,30.2,87,29.93,1.5,WSW,4.6,-,0.09,Snow,Light Snow,240,2013-10-29 14:39:00
8:44 AM,33.8,30.2,87,29.93,0.8,WSW,6.9,-,0.09,Snow,Light Snow,240,2013-10-29 14:44:00
8:53 AM,33.1,30.9,92,29.89,0.8,West,9.2,-,0.10,Snow,Light Snow,260,2013-10-29 14:53:00
9:01 AM,32.0,30.2,93,29.95,0.5,SW,8.1,-,0.01,Fog-Snow,Snow,230,2013-10-29 15:01:00
9:31 AM,32.0,32.0,100,29.97,0.2,SSW,6.9,-,0.08,Fog-Snow,Heavy Snow,200,2013-10-29 15:31:00
9:53 AM,32.0,32.0,100,29.92,0.2,South,3.5,-,0.13,Fog-Snow,Heavy Snow,170,2013-10-29 15:53:00
10:01 AM,32.0,32.0,100,29.99,0.2,Calm,Calm,-,0.01,Fog-Snow,Heavy Snow,0,2013-10-29 16:01:00
10:34 AM,32.0,32.0,100,29.99,1.2,SE,6.9,-,0.03,Snow,Light Snow,130,2013-10-29 16:34:00
10:39 AM,32.0,32.0,100,29.99,3.0,SE,6.9,-,0.03,Snow,Light Snow,130,2013-10-29 16:39:00
10:50 AM,33.8,32.0,93,29.98,9.0,East,8.1,-,0.03,,Mostly Cloudy,100,2013-10-29 16:50:00
10:53 AM,33.1,32.0,96,29.92,10.0,ESE,6.9,-,0.03,,Mostly Cloudy,110,2013-10-29 16:53:00
11:00 AM,33.8,32.0,93,29.98,10.0,ESE,8.1,-,N/A,,Scattered Clouds,110,2013-10-29 17:00:00
11:53 AM,34.0,30.9,89,29.90,10.0,Calm,Calm,-,N/A,,Overcast,0,2013-10-29 17:53:00
12:53 PM,41.0,32.0,70,29.86,10.0,SE,4.6,-,0.01,,Clear,140,2013-10-29 18:53:00
1:53 PM,43.0,32.0,65,29.81,10.0,South,4.6,-,N/A,,Clear,180,2013-10-29 19:53:00
2:53 PM,44.1,30.9,60,29.80,10.0,SSW,5.8,-,N/A,,Partly Cloudy,200,2013-10-29 20:53:00
3:53 PM,43.0,30.9,62,29.79,10.0,South,5.8,-,N/A,,Partly Cloudy,170,2013-10-29 21:53:00
4:53 PM,43.0,32.0,65,29.81,10.0,Variable,3.5,-,N/A,,Overcast,0,2013-10-29 22:53:00
5:53 PM,39.9,33.1,77,29.82,10.0,Calm,Calm,-,N/A,,Overcast,0,2013-10-29 23:53:00
6:53 PM,41.0,32.0,70,29.83,10.0,ESE,6.9,-,N/A,,Overcast,110,2013-10-30 00:53:00
7:53 PM,37.9,33.1,83,29.84,10.0,East,8.1,-,N/A,,Overcast,100,2013-10-30 01:53:00
8:53 PM,37.0,33.1,86,29.88,10.0,East,5.8,-,0.00,Rain,Light Rain,100,2013-10-30 02:53:00
9:15 PM,35.6,33.8,93,29.89,10.0,East,4.6,-,0.00,Rain,Light Rain,90,2013-10-30 03:15:00
9:32 PM,35.6,33.8,93,29.89,6.0,Calm,Calm,-,0.01,Snow,Light Snow,0,2013-10-30 03:32:00
9:39 PM,33.8,32.0,93,29.90,2.5,Calm,Calm,-,0.02,Snow,Light Snow,0,2013-10-30 03:39:00
9:48 PM,33.8,32.0,93,29.90,1.8,Calm,Calm,-,0.04,Snow,Light Snow,0,2013-10-30 03:48:00
9:53 PM,33.1,32.0,96,29.90,1.8,NNE,3.5,-,0.05,Snow,Light Snow,20,2013-10-30 03:53:00
10:11 PM,32.0,32.0,100,29.91,0.8,SW,3.5,-,0.04,Snow,Light Snow,220,2013-10-30 04:11:00
10:40 PM,32.0,32.0,100,29.91,1.2,Calm,Calm,-,0.08,Snow,Light Snow,0,2013-10-30 04:40:00
10:53 PM,32.0,30.9,96,29.91,1.2,NE,3.5,-,0.09,Snow,Light Snow,50,2013-10-30 04:53:00
11:02 PM,32.0,32.0,100,29.91,2.0,Calm,Calm,-,0.00,Snow,Light Snow,0,2013-10-30 05:02:00
11:19 PM,32.0,32.0,100,29.90,2.0,Calm,Calm,-,0.01,Snow,Light Snow,0,2013-10-30 05:19:00
11:27 PM,32.0,30.2,93,29.90,2.5,Calm,Calm,-,0.01,Snow,Light Snow,0,2013-10-30 05:27:00
11:33 PM,32.0,32.0,100,29.91,1.8,Calm,Calm,-,0.01,Snow,Light Snow,0,2013-10-30 05:33:00
11:42 PM,32.0,32.0,100,29.91,1.0,Calm,Calm,-,0.02,Snow,Light Snow,0,2013-10-30 05:42:00
11:45 PM,32.0,32.0,100,29.92,0.8,Calm,Calm,-,0.03,Snow,Light Snow,0,2013-10-30 05:45:00
11:53 PM,32.0,32.0,100,29.92,0.8,Calm,Calm,-,0.04,Snow,Light Snow,0,2013-10-30 05:53:00